This is the latest recevied weather packets stored in our database for station/object SR2CPA-13. If no packets are shown the sender has not sent any weather packets the latest 10 day(s).
| Time | Temp. | Humidity | Pressure | Rain* | Wind** | Luminosity | Snow |
|---|---|---|---|---|---|---|---|
| 1777627350 | 18.89° C | 46% | 0 hPa | 0 mm | - | - | - |
| 1777626750 | 19.44° C | 46% | 0 hPa | 0 mm | - | - | - |
| 1777626130 | 18.33° C | 47% | 0 hPa | 0 mm | - | - | - |
| 1777625530 | 18.33° C | 48% | 0 hPa | 0 mm | - | - | - |
| 1777624910 | 17.78° C | 49% | 0 hPa | 0 mm | - | - | - |
| 1777624310 | 17.78° C | 51% | 0 hPa | 0 mm | - | - | - |
| 1777623690 | 17.78° C | 52% | 0 hPa | 0 mm | - | - | - |
| 1777623090 | 16.67° C | 51% | 0 hPa | 0 mm | - | - | - |
| 1777622490 | 16.67° C | 52% | 0 hPa | 0 mm | - | - | - |
| 1777621870 | 16.67° C | 54% | 0 hPa | 0 mm | - | - | - |
| 1777621250 | 16.67° C | 58% | 0 hPa | 0 mm | - | - | - |
| 1777620650 | 15.56° C | 56% | 0 hPa | 0 mm | - | - | - |
| 1777620031 | 15° C | 57% | 0 hPa | 0 mm | - | - | - |
| 1777619429 | 14.44° C | 61% | 0 hPa | 0 mm | - | - | - |
| 1777618810 | 14.44° C | 62% | 0 hPa | 0 mm | - | - | - |
| 1777618209 | 13.89° C | 64% | 0 hPa | 0 mm | - | - | - |
| 1777617590 | 13.33° C | 66% | 0 hPa | 0 mm | - | - | - |
| 1777616989 | 12.78° C | 69% | 0 hPa | 0 mm | - | - | - |
| 1777616369 | 11.67° C | 72% | 0 hPa | 0 mm | - | - | - |
| 1777615769 | 11.67° C | 77% | 0 hPa | 0 mm | - | - | - |
| 1777615149 | 10.56° C | 79% | 0 hPa | 0 mm | - | - | - |
| 1777614549 | 10° C | 82% | 0 hPa | 0 mm | - | - | - |
| 1777613949 | 9.44° C | 86% | 0 hPa | 0 mm | - | - | - |
| 1777613329 | 8.89° C | 90% | 0 hPa | 0 mm | - | - | - |
| 1777612729 | 8.33° C | 91% | 0 hPa | 0 mm | - | - | - |
* Rain latest hour (hover to see other rain measurements)
** Current wind speed in m/s (hover to see current wind gust speed)